TimeEDT,TemperatureF,Dew PointF,Humidity,Sea Level PressureIn,VisibilityMPH,Wind Direction,Wind SpeedMPH,Gust SpeedMPH,PrecipitationIn,Events,Conditions,WindDirDegrees,DateUTC
12:53 AM,53.1,48.9,86,30.13,10.0,Calm,Calm,-,N/A,,Clear,0,2012-09-10 04:53:00
1:53 AM,51.1,48.9,92,30.14,10.0,Calm,Calm,-,N/A,,Clear,0,2012-09-10 05:53:00
2:53 AM,50.0,46.9,89,30.14,10.0,Calm,Calm,-,N/A,,Clear,0,2012-09-10 06:53:00
3:53 AM,50.0,46.9,89,30.16,10.0,Calm,Calm,-,N/A,,Clear,0,2012-09-10 07:53:00
4:53 AM,48.9,46.0,90,30.17,10.0,Calm,Calm,-,N/A,,Clear,0,2012-09-10 08:53:00
5:53 AM,48.0,45.0,89,30.18,3.0,Calm,Calm,-,N/A,,Clear,0,2012-09-10 09:53:00
6:00 AM,48.2,44.6,87,30.18,2.0,Calm,Calm,-,N/A,,Clear,0,2012-09-10 10:00:00
6:09 AM,48.2,46.4,93,30.18,5.0,Calm,Calm,-,N/A,,Clear,0,2012-09-10 10:09:00
6:48 AM,48.2,44.6,87,30.19,1.8,Calm,Calm,-,N/A,,Clear,0,2012-09-10 10:48:00
6:53 AM,46.9,45.0,93,30.20,1.0,Calm,Calm,-,N/A,,Clear,0,2012-09-10 10:53:00
7:02 AM,48.2,44.6,87,30.20,4.0,Calm,Calm,-,N/A,,Clear,0,2012-09-10 11:02:00
7:53 AM,48.9,46.9,93,30.23,10.0,Calm,Calm,-,0.01,,Clear,0,2012-09-10 11:53:00
8:53 AM,55.0,51.1,86,30.24,10.0,Calm,Calm,-,N/A,,Clear,0,2012-09-10 12:53:00
9:53 AM,62.1,50.0,65,30.25,10.0,Calm,Calm,-,N/A,,Clear,0,2012-09-10 13:53:00
10:53 AM,66.9,46.9,49,30.25,10.0,East,6.9,-,N/A,,Clear,90,2012-09-10 14:53:00
11:53 AM,69.1,43.0,39,30.24,10.0,ESE,3.5,-,N/A,,Clear,120,2012-09-10 15:53:00
12:53 PM,70.0,44.1,39,30.23,10.0,SSE,4.6,-,N/A,,Clear,150,2012-09-10 16:53:00
1:53 PM,72.0,46.0,40,30.22,10.0,East,8.1,-,N/A,,Clear,90,2012-09-10 17:53:00
3:53 PM,73.9,46.9,38,30.18,10.0,Calm,Calm,-,N/A,,Clear,0,2012-09-10 19:53:00
4:53 PM,73.0,45.0,37,30.17,10.0,Calm,Calm,-,N/A,,Clear,0,2012-09-10 20:53:00
5:53 PM,73.9,46.0,37,30.17,10.0,Calm,Calm,-,N/A,,Clear,0,2012-09-10 21:53:00
6:53 PM,73.0,46.9,39,30.16,10.0,SE,3.5,-,N/A,,Clear,140,2012-09-10 22:53:00
7:53 PM,66.0,50.0,56,30.15,10.0,SE,3.5,-,N/A,,Clear,140,2012-09-10 23:53:00
8:53 PM,62.1,50.0,65,30.15,10.0,SE,4.6,-,N/A,,Clear,130,2012-09-11 00:53:00
9:53 PM,57.0,50.0,77,30.16,10.0,ESE,3.5,-,N/A,,Clear,120,2012-09-11 01:53:00
10:53 PM,57.0,50.0,77,30.16,10.0,SE,4.6,-,N/A,,Clear,130,2012-09-11 02:53:00
11:53 PM,55.9,50.0,80,30.16,10.0,Calm,Calm,-,N/A,,Clear,0,2012-09-11 03:53:00